Location: ????????
(55.0808°N, 38.5463°E)
Time: 03:27:48
(UTC+00:00)

Nimbus 3 Rocket - Pass Details

Date: 21 September 2024
Orbit: 1072 x 1131 km, 99.9° (Epoch: 03 October)

Event Time Altitude Azimuth Distance (km) Brightness Sun altitude
Rises 19:34:40 0° 25° (NNE) 3,910 8.6 -30.7°
Reaches altitude 10° 19:38:43 10° 49° (NE) 2,937 7.6 -31.0°
Enters shadow 19:40:45 14° 67° (ENE) 2,659 7.2 -31.1°
